Appleton, MN

4:57 PM CST on January 22, 2018 (GMT -0600)
Appleton Municipal

Weather History for KAQP - June, 2014

Change the Weather History Date:

Sunday, June 29, 2014

  Actual Average Record
Temperature  
Mean Temperature 73 °F -  
Max Temperature 82 °F 78 °F 93 °F (2002)
Min Temperature 64 °F 57 °F 46 °F (2007)
Cooling Degree Days 8    
Growing Degree Days 23 (Base 50)    
Moisture  
Dew Point 55 °F    
Average Humidity 55    
Maximum Humidity 88    
Minimum Humidity 28    
Precipitation  
Precipitation 0.00 in - - ()
Sea Level Pressure  
Sea Level Pressure 29.68 in    
Wind  
Wind Speed 11 mph (SW)    
Max Wind Speed 25 mph    
Max Gust Speed 36 mph    
Visibility 10 miles    
Events Thunderstorm    
Averages and records for this station are not official NWS values.
T = Trace of Precipitation, MM = Missing Value Source: NWS Daily Summary

Daily Weather History Graph

Daily Weather History Graph

Search for Another Location

Airport or City:

Trip Planner

Search our weather history database for the weather conditions in past years. The results will help you decide how hot, cold, wet, or windy it might be!

Date:

Astronomy

Jun. 29, 2014 Rise Set
Actual Time 5:39 AM CDT 9:15 PM CDT
Civil Twilight 5:01 AM CDT 9:53 PM CDT
Nautical Twilight 4:11 AM CDT 10:42 PM CDT
Astronomical Twilight 3:05 AM CDT 11:48 PM CDT
Moon 8:05 AM CDT (6/29) 10:27 PM CDT (6/29)
Length of Visible Light 16h 51m
Length of Day
15h 36m
Waxing Crescent, 5% of the Moon is Illuminated
Jun 29
Waxing Crescent
Jul 5
First Quarter
Jul 12
Full
Jul 18
Last Quarter
Jul 26
New

Hourly Weather History & Observations

Time (CDT) Temp. Heat Index Dew Point Humidity Pressure Visibility Wind Dir Wind Speed Gust Speed Precip Events Conditions
12:14 AM 68.0 °F - 62.6 °F 83% 29.67 in 10.0 mi SSW 6.9 mph - N/A   Clear
12:34 AM 68.0 °F - 62.6 °F 83% 29.67 in 10.0 mi South 8.1 mph - N/A   Clear
12:54 AM 68.0 °F - 62.6 °F 83% 29.68 in 10.0 mi SSW 8.1 mph - N/A   Clear
1:14 AM 69.8 °F - 62.6 °F 78% 29.68 in 10.0 mi SSW 9.2 mph - N/A   Clear
1:55 AM 68.0 °F - 62.6 °F 83% 29.68 in 10.0 mi South 6.9 mph - N/A   Clear
2:15 AM 68.0 °F - 62.6 °F 83% 29.68 in 10.0 mi SSW 6.9 mph - N/A   Clear
2:34 AM 68.0 °F - 60.8 °F 78% 29.68 in 10.0 mi SSW 8.1 mph - N/A   Clear
2:54 AM 66.2 °F - 60.8 °F 83% 29.68 in 10.0 mi SSW 8.1 mph - N/A   Clear
3:14 AM 66.2 °F - 60.8 °F 83% 29.68 in 10.0 mi SW 8.1 mph - N/A   Clear
3:34 AM 66.2 °F - 60.8 °F 83% 29.68 in 10.0 mi SSW 6.9 mph - N/A   Clear
3:54 AM 66.2 °F - 60.8 °F 83% 29.67 in 10.0 mi SSW 5.8 mph - N/A   Clear
4:14 AM 66.2 °F - 60.8 °F 83% 29.66 in 10.0 mi South 4.6 mph - N/A   Clear
4:35 AM 64.4 °F - 60.8 °F 88% 29.66 in 10.0 mi SSW 4.6 mph - N/A   Clear
4:54 AM 64.4 °F - 60.8 °F 88% 29.66 in 10.0 mi SW 4.6 mph - N/A   Clear
5:14 AM 64.4 °F - 60.8 °F 88% 29.67 in 10.0 mi SW 4.6 mph - N/A   Scattered Clouds
5:35 AM 64.4 °F - 60.8 °F 88% 29.68 in 10.0 mi WNW 3.5 mph - N/A   Scattered Clouds
5:54 AM 64.4 °F - 60.8 °F 88% 29.67 in 10.0 mi Calm Calm - N/A   Clear
6:15 AM 64.4 °F - 60.8 °F 88% 29.68 in 10.0 mi South 6.9 mph - N/A   Clear
6:34 AM 66.2 °F - 62.6 °F 88% 29.67 in 10.0 mi South 6.9 mph - N/A   Mostly Cloudy
6:54 AM 66.2 °F - 60.8 °F 83% 29.68 in 10.0 mi SSW 5.8 mph - N/A   Mostly Cloudy
7:14 AM 66.2 °F - 60.8 °F 83% 29.68 in 10.0 mi SW 11.5 mph - N/A   Scattered Clouds
7:34 AM 68.0 °F - 59.0 °F 73% 29.68 in 10.0 mi WSW 11.5 mph 18.4 mph N/A   Clear
7:54 AM 69.8 °F - 59.0 °F 68% 29.68 in 10.0 mi WSW 12.7 mph 18.4 mph N/A Thunderstorm Clear
8:15 AM 69.8 °F - 57.2 °F 64% 29.69 in 10.0 mi SW 12.7 mph 17.3 mph N/A   Clear
8:34 AM 71.6 °F - 57.2 °F 60% 29.69 in 10.0 mi SW 12.7 mph - N/A   Clear
8:54 AM 71.6 °F - 59.0 °F 64% 29.70 in 10.0 mi SW 10.4 mph 18.4 mph N/A   Clear
9:14 AM 71.6 °F - 57.2 °F 60% 29.69 in 10.0 mi SSW 16.1 mph 19.6 mph N/A   Clear
9:34 AM 73.4 °F - 57.2 °F 57% 29.69 in 10.0 mi SSW 12.7 mph 17.3 mph N/A   Clear
9:54 AM 73.4 °F - 57.2 °F 57% 29.69 in 10.0 mi SW 12.7 mph - N/A   Clear
10:14 AM 75.2 °F - 57.2 °F 53% 29.68 in 10.0 mi SW 9.2 mph - N/A   Clear
10:34 AM 75.2 °F - 57.2 °F 53% 29.68 in 10.0 mi SSW 12.7 mph - N/A   Clear
10:54 AM 77.0 °F - 57.2 °F 50% 29.69 in 10.0 mi SW 12.7 mph 19.6 mph N/A   Clear
11:15 AM 78.8 °F - 57.2 °F 47% 29.68 in 10.0 mi SW 16.1 mph 24.2 mph N/A   Clear
11:34 AM 78.8 °F - 55.4 °F 44% 29.69 in 10.0 mi SW 16.1 mph 25.3 mph N/A   Clear
11:54 AM 78.8 °F - 53.6 °F 42% 29.69 in 10.0 mi SW 18.4 mph 24.2 mph N/A   Clear
12:15 PM 80.6 °F 80.3 °F 53.6 °F 39% 29.70 in 10.0 mi SW 20.7 mph 24.2 mph N/A   Clear
12:34 PM 80.6 °F 80.3 °F 53.6 °F 39% 29.71 in 10.0 mi WSW 13.8 mph 24.2 mph N/A   Clear
12:55 PM 80.6 °F 80.3 °F 53.6 °F 39% 29.71 in 10.0 mi WSW 16.1 mph 23.0 mph N/A   Clear
1:15 PM 80.6 °F - 51.8 °F 37% 29.71 in 10.0 mi WSW 18.4 mph 25.3 mph N/A   Clear
1:35 PM 80.6 °F - 51.8 °F 37% 29.70 in 10.0 mi WSW 17.3 mph 25.3 mph N/A   Clear
1:54 PM 82.4 °F - 48.2 °F 30% 29.70 in 10.0 mi WSW 18.4 mph 29.9 mph N/A   Clear
2:14 PM 82.4 °F - 50.0 °F 32% 29.69 in 10.0 mi WSW 24.2 mph 32.2 mph N/A   Clear
2:34 PM 82.4 °F - 48.2 °F 30% 29.69 in 10.0 mi West 24.2 mph 31.1 mph N/A   Clear
2:54 PM 82.4 °F - 48.2 °F 30% 29.69 in 10.0 mi WSW 25.3 mph 29.9 mph N/A   Clear
3:14 PM 82.4 °F - 48.2 °F 30% 29.68 in 10.0 mi West 21.9 mph 31.1 mph N/A   Clear
3:35 PM 82.4 °F - 46.4 °F 28% 29.67 in 10.0 mi WSW 21.9 mph 29.9 mph N/A   Clear
3:55 PM 82.4 °F - 48.2 °F 30% 29.67 in 10.0 mi WSW 19.6 mph 29.9 mph N/A   Clear
4:15 PM 82.4 °F - 46.4 °F 28% 29.67 in 10.0 mi WSW 21.9 mph 27.6 mph N/A   Clear
4:34 PM 82.4 °F - 46.4 °F 28% 29.66 in 10.0 mi West 20.7 mph 29.9 mph N/A   Clear
4:54 PM 82.4 °F - 48.2 °F 30% 29.66 in 10.0 mi WSW 24.2 mph 32.2 mph N/A   Clear
5:15 PM 82.4 °F - 46.4 °F 28% 29.66 in 10.0 mi West 23.0 mph 31.1 mph N/A   Clear
5:34 PM 82.4 °F - 48.2 °F 30% 29.65 in 10.0 mi West 23.0 mph 27.6 mph N/A   Clear
5:54 PM 82.4 °F - 46.4 °F 28% 29.65 in 10.0 mi West 25.3 mph 35.7 mph N/A   Clear
6:14 PM 82.4 °F - 48.2 °F 30% 29.65 in 10.0 mi West 20.7 mph 29.9 mph N/A   Clear
6:34 PM 82.4 °F - 48.2 °F 30% 29.65 in 10.0 mi West 20.7 mph 27.6 mph N/A   Clear
6:55 PM 82.4 °F - 46.4 °F 28% 29.65 in 10.0 mi West 17.3 mph 24.2 mph N/A   Clear
7:14 PM 80.6 °F - 48.2 °F 32% 29.66 in 10.0 mi West 18.4 mph 24.2 mph N/A   Clear
7:34 PM 80.6 °F - 48.2 °F 32% 29.66 in 10.0 mi West 15.0 mph - N/A   Clear
7:54 PM 80.6 °F - 48.2 °F 32% 29.66 in 10.0 mi West 17.3 mph 20.7 mph N/A   Clear
8:14 PM 78.8 °F - 48.2 °F 34% 29.67 in 10.0 mi West 12.7 mph 17.3 mph N/A   Clear
8:34 PM 75.2 °F - 51.8 °F 44% 29.67 in 10.0 mi WSW 11.5 mph - N/A   Clear
8:54 PM 77.0 °F - 50.0 °F 39% 29.67 in 10.0 mi WSW 12.7 mph - N/A   Clear
9:14 PM 75.2 °F - 51.8 °F 44% 29.67 in 10.0 mi WSW 8.1 mph - N/A   Clear
9:34 PM 73.4 °F - 53.6 °F 50% 29.67 in 10.0 mi SW 9.2 mph - N/A   Clear
9:54 PM 73.4 °F - 53.6 °F 50% 29.68 in 10.0 mi WSW 9.2 mph - N/A   Clear
10:14 PM 71.6 °F - 53.6 °F 53% 29.68 in 10.0 mi WSW 6.9 mph - N/A   Clear
10:34 PM 69.8 °F - 55.4 °F 60% 29.68 in 10.0 mi SW 6.9 mph - N/A   Clear
10:54 PM 69.8 °F - 55.4 °F 60% 29.68 in 10.0 mi SW 8.1 mph - N/A   Clear
11:15 PM 69.8 °F - 53.6 °F 56% 29.67 in 10.0 mi SW 8.1 mph - N/A   Clear
11:34 PM 69.8 °F - 53.6 °F 56% 29.68 in 10.0 mi SW 9.2 mph - N/A   Clear
11:55 PM 69.8 °F - 53.6 °F 56% 29.67 in 10.0 mi SW 9.2 mph - N/A   Clear